Time,TemperatureF,DewpointF,PressureIn,WindDirection,WindDirectionDegrees,WindSpeedMPH,WindSpeedGustMPH,Humidity,HourlyPrecipIn,Conditions,Clouds,dailyrainin,SolarRadiationWatts/m^2,SoftwareType,DateUTC
2013-09-13 00:02:00,46.0,46.0,-100.00,West,274,0.0,1.0,100,0.00,,,-99.99,0.000000,,2013-09-13 08:02:00,
2013-09-13 00:11:00,46.0,46.0,-100.00,West,274,0.0,1.0,100,0.00,,,-99.99,0.000000,,2013-09-13 08:11:00,
2013-09-13 00:22:00,46.0,46.0,-100.00,West,274,0.0,1.0,100,0.00,,,-99.99,0.000000,,2013-09-13 08:22:00,
2013-09-13 00:52:00,46.0,46.0,-100.00,WNW,296,0.0,1.0,100,0.00,,,-99.99,0.000000,,2013-09-13 08:52:00,
2013-09-13 01:02:00,46.0,46.0,-100.00,WNW,296,0.0,1.0,100,0.00,,,-99.99,0.000000,,2013-09-13 09:02:00,
2013-09-13 01:11:00,46.0,46.0,-100.00,WNW,296,0.0,1.0,100,0.00,,,-99.99,0.000000,,2013-09-13 09:11:00,
2013-09-13 01:21:00,46.0,46.0,-100.00,WNW,296,0.0,1.0,100,0.00,,,-99.99,0.000000,,2013-09-13 09:21:00,
2013-09-13 01:54:00,46.0,46.0,-100.00,West,280,0.0,2.0,100,0.00,,,-99.99,0.000000,,2013-09-13 09:54:00,
2013-09-13 02:03:00,46.0,46.0,-100.00,West,280,0.0,2.0,100,0.00,,,-99.99,0.000000,,2013-09-13 10:03:00,
2013-09-13 02:12:00,46.0,46.0,-100.00,West,280,0.0,2.0,100,0.00,,,-99.99,0.000000,,2013-09-13 10:12:00,
2013-09-13 02:22:00,46.0,46.0,-100.00,West,280,0.0,2.0,100,0.00,,,-99.99,0.000000,,2013-09-13 10:22:00,
2013-09-13 02:53:00,46.0,46.0,-100.00,West,269,0.0,1.0,100,0.00,,,-99.99,0.000000,,2013-09-13 10:53:00,
2013-09-13 03:03:00,46.0,46.0,-100.00,West,269,0.0,1.0,100,0.00,,,-99.99,0.000000,,2013-09-13 11:03:00,
2013-09-13 03:12:00,46.0,46.0,-100.00,West,269,0.0,1.0,100,0.00,,,-99.99,0.000000,,2013-09-13 11:12:00,
2013-09-13 03:22:00,46.0,46.0,-100.00,West,269,0.0,1.0,100,0.00,,,-99.99,0.000000,,2013-09-13 11:22:00,
2013-09-13 03:52:00,46.0,46.0,-100.00,WNW,282,0.0,1.0,100,0.00,,,-99.99,0.000000,,2013-09-13 11:52:00,
2013-09-13 04:01:00,46.0,46.0,-100.00,WNW,282,0.0,1.0,100,0.00,,,-99.99,0.000000,,2013-09-13 12:01:00,
2013-09-13 04:11:00,46.0,46.0,-100.00,WNW,282,0.0,1.0,100,0.00,,,-99.99,0.000000,,2013-09-13 12:11:00,
2013-09-13 04:21:00,46.0,46.0,-100.00,WNW,282,0.0,1.0,100,0.00,,,-99.99,0.000000,,2013-09-13 12:21:00,
2013-09-13 04:52:00,46.0,46.0,-100.00,WNW,288,0.0,1.0,100,0.00,,,0.00,0.000000,,2013-09-13 12:52:00,
2013-09-13 05:02:00,46.0,46.0,-100.00,WNW,288,0.0,1.0,100,0.00,,,0.00,0.000000,,2013-09-13 13:02:00,
2013-09-13 05:11:00,46.0,46.0,-100.00,WNW,288,0.0,1.0,100,0.00,,,0.00,0.000000,,2013-09-13 13:11:00,
2013-09-13 05:21:00,46.0,46.0,-100.00,WNW,288,0.0,1.0,100,0.00,,,0.00,0.000000,,2013-09-13 13:21:00,
2013-09-13 05:52:00,48.0,48.0,-100.00,NNW,336,0.0,0.0,100,0.00,,,-99.99,0.000000,,2013-09-13 13:52:00,
2013-09-13 06:02:00,48.0,48.0,-100.00,NNW,336,0.0,0.0,100,0.00,,,-99.99,0.000000,,2013-09-13 14:02:00,
2013-09-13 06:11:00,48.0,48.0,-100.00,NNW,336,0.0,0.0,100,0.00,,,-99.99,0.000000,,2013-09-13 14:11:00,
2013-09-13 06:21:00,48.0,48.0,-100.00,NNW,336,0.0,0.0,100,0.00,,,-99.99,0.000000,,2013-09-13 14:21:00,
2013-09-13 06:52:00,46.0,46.0,-100.00,NW,309,0.0,1.0,100,0.00,,,0.00,0.000000,,2013-09-13 14:52:00,
2013-09-13 07:02:00,46.0,46.0,-100.00,NW,309,0.0,1.0,100,0.00,,,0.00,0.000000,,2013-09-13 15:02:00,
2013-09-13 07:11:00,46.0,46.0,-100.00,NW,309,0.0,1.0,100,0.00,,,0.00,0.000000,,2013-09-13 15:11:00,
2013-09-13 07:21:00,46.0,46.0,-100.00,NW,309,0.0,1.0,100,0.00,,,0.00,0.000000,,2013-09-13 15:21:00,
2013-09-13 07:53:00,48.0,46.0,-100.00,NE,41,1.0,5.0,93,0.00,,,-99.99,0.000000,,2013-09-13 15:53:00,
2013-09-13 08:03:00,48.0,46.0,-100.00,NE,41,1.0,5.0,93,0.00,,,-99.99,0.000000,,2013-09-13 16:03:00,
2013-09-13 08:12:00,48.0,46.0,-100.00,NE,41,1.0,5.0,93,0.00,,,-99.99,0.000000,,2013-09-13 16:12:00,
2013-09-13 08:23:00,48.0,46.0,-100.00,NE,41,1.0,5.0,93,0.00,,,-99.99,0.000000,,2013-09-13 16:23:00,
2013-09-13 08:54:00,48.0,46.0,-100.00,NE,50,2.0,4.0,93,0.00,,,-99.99,8.000000,,2013-09-13 16:54:00,
2013-09-13 09:04:00,48.0,46.0,-100.00,NE,50,2.0,4.0,93,0.00,,,-99.99,8.000000,,2013-09-13 17:04:00,
2013-09-13 09:13:00,48.0,46.0,-100.00,NE,50,2.0,4.0,93,0.00,,,-99.99,8.000000,,2013-09-13 17:13:00,
2013-09-13 09:23:00,48.0,46.0,-100.00,NE,50,2.0,4.0,93,0.00,,,-99.99,8.000000,,2013-09-13 17:23:00,
2013-09-13 09:53:00,48.0,47.0,-100.00,ENE,60,0.0,1.0,94,0.00,,,0.00,25.000000,,2013-09-13 17:53:00,
2013-09-13 10:02:00,48.0,47.0,-100.00,ENE,60,0.0,1.0,94,0.00,,,0.00,25.000000,,2013-09-13 18:02:00,
2013-09-13 10:12:00,48.0,47.0,-100.00,ENE,60,0.0,1.0,94,0.00,,,0.00,25.000000,,2013-09-13 18:12:00,
2013-09-13 10:22:00,48.0,47.0,-100.00,ENE,60,0.0,1.0,94,0.00,,,0.00,25.000000,,2013-09-13 18:22:00,
2013-09-13 10:52:00,50.0,47.0,-100.00,ENE,73,0.0,1.0,89,0.00,,,0.00,53.000000,,2013-09-13 18:52:00,
2013-09-13 11:01:00,50.0,47.0,-100.00,ENE,73,0.0,1.0,89,0.00,,,0.00,53.000000,,2013-09-13 19:01:00,
2013-09-13 11:11:00,50.0,47.0,-100.00,ENE,73,0.0,1.0,89,0.00,,,0.00,53.000000,,2013-09-13 19:11:00,
2013-09-13 11:22:00,50.0,47.0,-100.00,ENE,73,0.0,1.0,89,0.00,,,0.00,53.000000,,2013-09-13 19:22:00,
2013-09-13 11:52:00,50.0,46.0,-100.00,SE,129,0.0,2.0,85,0.00,,,0.00,99.000000,,2013-09-13 19:52:00,
2013-09-13 12:02:00,50.0,46.0,-100.00,SE,129,0.0,2.0,85,0.00,,,0.00,99.000000,,2013-09-13 20:02:00,
2013-09-13 12:11:00,50.0,46.0,-100.00,SE,129,0.0,2.0,85,0.00,,,0.00,99.000000,,2013-09-13 20:11:00,
2013-09-13 12:21:00,50.0,46.0,-100.00,SE,129,0.0,2.0,85,0.00,,,0.00,99.000000,,2013-09-13 20:21:00,
2013-09-13 12:52:00,50.0,46.0,-100.00,SE,132,1.0,3.0,86,0.00,,,0.00,143.000000,,2013-09-13 20:52:00,
2013-09-13 13:02:00,50.0,46.0,-100.00,SE,132,1.0,3.0,86,0.00,,,0.00,143.000000,,2013-09-13 21:02:00,
2013-09-13 13:11:00,50.0,46.0,-100.00,SE,132,1.0,3.0,86,0.00,,,0.00,143.000000,,2013-09-13 21:11:00,
2013-09-13 13:21:00,50.0,46.0,-100.00,SE,132,1.0,3.0,86,0.00,,,0.00,143.000000,,2013-09-13 21:21:00,
2013-09-13 13:54:00,54.0,46.0,-100.00,SE,129,1.0,3.0,75,0.00,,,0.00,272.000000,,2013-09-13 21:54:00,
2013-09-13 14:04:00,54.0,46.0,-100.00,SE,129,1.0,3.0,75,0.00,,,0.00,272.000000,,2013-09-13 22:04:00,
2013-09-13 14:13:00,54.0,46.0,-100.00,SE,129,1.0,3.0,75,0.00,,,0.00,272.000000,,2013-09-13 22:13:00,
2013-09-13 14:23:00,54.0,46.0,-100.00,SE,129,1.0,3.0,75,0.00,,,0.00,272.000000,,2013-09-13 22:23:00,
2013-09-13 14:53:00,57.0,44.0,-100.00,SE,139,1.0,3.0,61,0.00,,,0.00,397.000000,,2013-09-13 22:53:00,
2013-09-13 15:03:00,57.0,44.0,-100.00,SE,139,1.0,3.0,61,0.00,,,0.00,397.000000,,2013-09-13 23:03:00,
2013-09-13 15:12:00,57.0,44.0,-100.00,SE,139,1.0,3.0,61,0.00,,,0.00,397.000000,,2013-09-13 23:12:00,
2013-09-13 15:21:00,57.0,44.0,-100.00,SE,139,1.0,3.0,61,0.00,,,0.00,397.000000,,2013-09-13 23:21:00,
2013-09-13 15:52:00,61.0,48.0,-100.00,SE,131,1.0,4.0,62,0.00,,,0.00,431.000000,,2013-09-13 23:52:00,
2013-09-13 16:01:00,61.0,48.0,-100.00,SE,131,1.0,4.0,62,0.00,,,0.00,431.000000,,2013-09-14 00:01:00,
2013-09-13 16:11:00,61.0,48.0,-100.00,SE,131,1.0,4.0,62,0.00,,,0.00,431.000000,,2013-09-14 00:11:00,
2013-09-13 16:22:00,61.0,48.0,-100.00,SE,131,1.0,4.0,62,0.00,,,0.00,431.000000,,2013-09-14 00:22:00,
2013-09-13 16:52:00,59.0,48.0,-100.00,ESE,104,1.0,3.0,68,0.00,,,0.00,243.000000,,2013-09-14 00:52:00,
2013-09-13 17:02:00,59.0,48.0,-100.00,ESE,104,1.0,3.0,68,0.00,,,0.00,243.000000,,2013-09-14 01:02:00,
2013-09-13 17:11:00,59.0,48.0,-100.00,ESE,104,1.0,3.0,68,0.00,,,0.00,243.000000,,2013-09-14 01:11:00,
2013-09-13 17:21:00,59.0,48.0,-100.00,ESE,104,1.0,3.0,68,0.00,,,0.00,243.000000,,2013-09-14 01:21:00,
2013-09-13 17:52:00,55.0,46.0,-100.00,NE,48,1.0,2.0,71,0.00,,,0.00,125.000000,,2013-09-14 01:52:00,
2013-09-13 18:02:00,55.0,46.0,-100.00,NE,48,1.0,2.0,71,0.00,,,0.00,125.000000,,2013-09-14 02:02:00,
2013-09-13 18:12:00,55.0,46.0,-100.00,NE,48,1.0,2.0,71,0.00,,,0.00,125.000000,,2013-09-14 02:12:00,
2013-09-13 18:22:00,55.0,46.0,-100.00,NE,48,1.0,2.0,71,0.00,,,0.00,125.000000,,2013-09-14 02:22:00,
2013-09-13 18:52:00,54.0,50.0,-100.00,NNW,343,0.0,1.0,89,0.00,,,0.00,66.000000,,2013-09-14 02:52:00,
2013-09-13 19:02:00,54.0,50.0,-100.00,NNW,343,0.0,1.0,89,0.00,,,0.00,66.000000,,2013-09-14 03:02:00,
2013-09-13 19:11:00,54.0,50.0,-100.00,NNW,343,0.0,1.0,89,0.00,,,0.00,66.000000,,2013-09-14 03:11:00,
2013-09-13 19:22:00,54.0,50.0,-100.00,NNW,343,0.0,1.0,89,0.00,,,0.00,66.000000,,2013-09-14 03:22:00,
2013-09-13 19:24:00,50.0,48.0,-100.00,West,277,0.0,1.0,94,0.00,,,0.00,25.000000,,2013-09-14 03:24:00,
2013-09-13 19:55:00,50.0,48.0,-100.00,West,277,0.0,1.0,94,0.00,,,0.00,25.000000,,2013-09-14 03:55:00,
2013-09-13 20:04:00,50.0,48.0,-100.00,West,277,0.0,1.0,94,0.00,,,0.00,25.000000,,2013-09-14 04:04:00,
2013-09-13 20:14:00,50.0,48.0,-100.00,West,277,0.0,1.0,94,0.00,,,0.00,25.000000,,2013-09-14 04:14:00,
2013-09-13 20:54:00,48.0,47.0,-100.00,West,272,0.0,2.0,97,0.00,,,0.00,2.000000,,2013-09-14 04:54:00,
2013-09-13 21:03:00,48.0,47.0,-100.00,West,272,0.0,2.0,97,0.00,,,0.00,2.000000,,2013-09-14 05:03:00,
2013-09-13 21:13:00,48.0,47.0,-100.00,West,272,0.0,2.0,97,0.00,,,0.00,2.000000,,2013-09-14 05:13:00,
2013-09-13 21:22:00,48.0,47.0,-100.00,West,272,0.0,2.0,97,0.00,,,0.00,2.000000,,2013-09-14 05:22:00,
2013-09-13 21:52:00,46.0,46.0,-100.00,WNW,285,0.0,1.0,98,0.00,,,0.00,0.000000,,2013-09-14 05:52:00,
2013-09-13 22:02:00,46.0,46.0,-100.00,WNW,285,0.0,1.0,98,0.00,,,0.00,0.000000,,2013-09-14 06:02:00,
2013-09-13 22:12:00,46.0,46.0,-100.00,WNW,285,0.0,1.0,98,0.00,,,0.00,0.000000,,2013-09-14 06:12:00,
2013-09-13 22:21:00,46.0,46.0,-100.00,WNW,285,0.0,1.0,98,0.00,,,0.00,0.000000,,2013-09-14 06:21:00,
2013-09-13 22:52:00,45.0,44.0,-100.00,West,277,0.0,1.0,99,0.00,,,0.00,0.000000,,2013-09-14 06:52:00,
2013-09-13 23:02:00,45.0,44.0,-100.00,West,277,0.0,1.0,99,0.00,,,0.00,0.000000,,2013-09-14 07:02:00,
2013-09-13 23:12:00,45.0,44.0,-100.00,West,277,0.0,1.0,99,0.00,,,0.00,0.000000,,2013-09-14 07:12:00,
2013-09-13 23:21:00,45.0,44.0,-100.00,West,277,0.0,1.0,99,0.00,,,0.00,0.000000,,2013-09-14 07:21:00,
2013-09-13 23:52:00,45.0,44.0,-100.00,West,276,0.0,2.0,99,0.00,,,0.00,0.000000,,2013-09-14 07:52:00,